SCP
0 0 0 0 0 0 0 0 0 0 0 0 0 0 0 0 0 0 0 0 -0 -0 -0 -0 -0 -0 -0 0 0 0 0 0 0 0 0 0 0 1 1 0 0 0 0 1
0 0 0 0 0 0 0 0 0 0 0 0 0 0 0 0 0 -0 0 -0 -0 -0 -0 -0 -0 -0 -0 0 0 0 0 0 0 0 0 0 0 0 0 0 0 0 1 0
0 0 0 0 0 0 0 0 0 0 0 0 0 0 0 -0 0 -0 -0 -0 -0 -0 -0 -0 -0 -0 0 0 0 0 0 0 0 0 0 0 0 0 0 0 0 0 0 0
0 0 0 0 0 0 0 0 0 0 0 0 0 0 0 -0 0 -0 -0 -0 -0 -0 -0 -0 0 0 0 0 0 0 0 0 0 0 0 0 0 0 0 0 0 0 0 0
0 0 0 0 0 0 0 0 0 0 0 0 0 -0 0 0 0 -0 -0 -0 -0 -0 0 0 0 0 0 0 0 0 0 0 0 0 0 0 0 0 0 0 0 0 0 0
0 0 0 0 0 0 0 0 0 0 -0 -0 0 -0 0 -0 -0 -0 0 0 0 0 0 0 0 0 0 0 0 0 0 0 0 0 0 0 0 0 0 0 0 0 0 0
0 0 0 0 0 0 0 0 -0 -0 -0 -0 -0 -0 0 -0 -0 -0 0 0 0 0 0 0 0 0 0 0 0 0 0 0 0 0 0 0 0 0 0 0 0 0 0 0
0 0 0 0 0 0 0 0 0 0 -0 -0 -0 -0 -0 -0 -0 -0 0 0 0 0 0 0 0 0 0 0 0 0 0 0 0 0 0 0 0 0 0 0 0 0 0 0
0 0 0 0 0 0 0 0 0 0 -0 -0 -0 -0 -0 0 0 0 0 0 0 -0 -0 0 0 0 0 0 0 0 0 0 0 0 0 0 0 0 0 0 0 0 0 0
0 0 0 0 0 0 0 0 0 0 -0 -0 0 0 0 0 0 0 0 -0 -0 -0 -0 0 0 0 0 0 0 0 0 0 0 0 0 0 0 0 0 0 0 0 0 -0
0 0 -0 0 0 0 0 0 0 -0 0 0 0 0 0 0 0 -0 -0 -0 -0 0 0 0 0 0 0 0 0 0 0 0 0 0 0 0 0 0 0 0 0 0 0 0
-0 -0 0 0 0 0 0 -0 -0 0 0 0 0 0 0 0 -0 -0 -0 -0 0 0 0 0 0 0 0 0 0 0 0 0 0 0 0 0 0 0 0 0 0 0 0 0
0 0 0 0 0 0 0 0 0 0 0 -0 -0 0 0 -0 -0 -0 -0 0 0 -0 0 0 -0 -0 0 0 0 0 0 0 0 0 0 0 0 0 0 0 0 0 0 0
0 0 0 0 0 0 -0 0 0 0 0 0 0 0 -0 -0 -0 -0 0 0 -0 -0 0 0 -0 -0 0 0 0 0 0 0 0 0 0 0 0 0 0 0 0 0 0 0
0 0 0 0 0 0 0 0 0 0 0 0 0 -0 -0 -0 -0 -0 0 -0 -0 0 -0 0 0 0 0 0 0 0 0 0 0 0 0 0 0 0 0 0 0 0 0 0
0 0 0 0 0 0 0 -0 0 0 0 0 -0 -0 -0 -0 -0 0 0 0 0 0 0 0 0 0 0 0 0 0 0 0 0 0 0 0 0 0 0 0 0 0 0 0
-0 0 0 -0 -0 -0 -0 0 0 0 0 -0 -0 -0 -0 -0 -0 0 0 0 0 0 0 0 0 0 0 0 0 0 0 0 0 0 0 0 0 0 0 0 0 0 0 0
0 0 0 0 -0 -0 -0 -0 0 0 0 -0 -0 -0 -0 -0 -0 0 0 0 0 0 0 0 0 0 0 0 0 0 0 0 0 0 0 0 0 0 0 0 0 0 0 0
0 0 0 0 -0 -0 -0 -0 0 0 0 -0 -0 -0 -0 -0 0 0 0 0 0 0 0 0 0 0 0 0 0 0 0 0 0 0 0 0 0 0 0 0 0 0 0 0
0 0 0 0 -0 -0 -0 -0 0 0 0 -0 -0 -0 -0 -0 0 0 0 0 0 0 0 0 0 0 0 0 0 0 0 0 0 0 0 0 0 0 0 0 0 0 0 0
0 0 0 0 -0 -0 -0 -0 -0 0 -0 -0 -0 -0 0 0 0 0 0 0 0 0 0 0 0 0 0 0 0 0 0 0 0 0 0 0 0 0 0 0 0 0 0 0
0 0 0 -0 -0 -0 -0 -0 -0 -0 0 0 -0 0 0 0 0 0 0 0 0 0 0 0 0 0 0 0 0 0 0 0 0 0 0 0 0 0 -0 0 0 0 0 0
0 0 0 0 -0 -0 -0 -0 -0 0 0 -0 0 0 0 0 0 0 0 0 0 0 0 0 0 0 0 0 0 0 0 0 0 0 0 0 0 -0 0 -0 0 -0 0 0
0 0 0 0 -0 -0 -0 0 0 -0 0 0 0 0 0 0 0 0 0 0 0 0 0 0 0 0 0 0 0 0 0 0 0 0 0 -0 0 -0 -0 0 0 0 0 0
0 -0 0 0 -0 -0 -0 0 0 0 0 0 0 0 0 0 0 0 0 0 0 0 0 0 0 0 0 0 0 0 0 0 0 -0 -0 -0 0 0 -0 0 0 0 0 0
-0 -0 0 0 -0 -0 -0 -0 0 0 0 0 0 0 0 0 0 0 0 0 0 0 0 0 0 0 0 0 0 0 0 0 0 0 0 0 0 0 0 -0 0 0 0 0
0 -0 -0 -0 -0 -0 -0 0 0 0 0 0 0 0 0 0 0 0 0 0 0 0 0 0 0 0 0 0 0 0 0 0 0 0 0 0 -0 0 0 -0 0 0 0 0
Wind_Speed_500mb
33 43 44 45 48 48 39 47 32 51 49 48 42 22 31 34 44 58 61 66 61 63 66 62 63 62 63 59 50 44 46 44 41 34 27 18 23 30 34 43 48 42 59 56
40 32 28 29 38 41 41 40 32 37 45 15 24 30 46 49 61 71 70 65 65 68 66 68 66 63 67 59 50 44 44 43 38 34 24 16 17 31 32 44 45 54 48 36
25 19 34 28 11 16 27 22 17 15 34 26 29 43 50 64 72 66 65 66 76 75 69 74 73 74 68 56 51 46 44 39 35 32 23 18 16 22 30 37 36 32 25 28
16 26 23 13 32 21 17 22 29 40 30 22 48 54 58 63 54 61 77 80 74 71 75 73 75 77 62 53 48 46 44 39 32 28 24 19 16 19 23 31 37 37 26 35
9 20 37 21 3 4 6 37 32 5 25 62 53 59 54 47 59 81 75 73 73 81 76 79 71 65 57 49 44 43 43 34 27 26 24 19 17 20 19 29 39 40 33 28
11 9 16 15 2 26 40 31 10 41 48 57 44 33 41 82 86 76 71 75 76 78 80 71 67 59 51 46 40 42 38 28 24 25 23 17 19 20 20 23 35 33 26 21
14 13 20 14 6 53 15 12 62 69 57 60 31 47 99 95 83 75 77 75 72 71 76 72 64 50 47 43 40 37 35 27 20 27 24 15 25 20 24 32 34 33 25 28
8 10 12 5 39 4 24 66 65 61 62 61 72 84 82 86 88 85 89 86 78 76 68 64 53 42 43 40 29 27 26 25 20 28 25 23 28 22 28 35 32 30 27 37
10 15 51 63 43 63 56 63 62 53 69 78 77 80 83 83 76 82 80 78 78 67 65 54 42 36 42 35 29 28 31 31 25 29 28 27 28 25 34 30 31 33 39 44
16 17 33 54 61 55 68 66 61 67 73 69 75 79 80 79 77 77 78 77 72 66 60 54 41 35 36 34 32 36 42 43 35 36 30 32 26 26 40 43 47 44 47 55
24 43 48 36 56 66 71 61 67 66 65 74 67 79 74 77 77 79 80 76 70 65 61 55 40 33 28 31 32 35 42 36 40 39 40 39 34 41 45 49 40 42 53 52
7 43 38 54 69 63 59 64 67 69 75 71 73 74 72 73 74 74 78 77 70 63 57 47 34 25 23 27 31 31 35 44 53 51 46 40 45 52 50 52 49 54 61 65
23 50 50 60 60 65 63 64 69 71 68 73 69 65 67 71 69 70 75 63 66 58 31 17 10 17 21 27 34 51 48 62 59 55 45 49 52 54 53 40 44 54 61 65
42 43 49 52 67 65 63 69 72 63 67 63 67 66 65 67 66 68 59 55 34 21 12 2 11 28 32 44 44 47 53 54 59 47 51 55 55 57 56 57 60 58 52 66
35 45 45 57 63 65 70 67 67 69 64 68 65 68 65 62 60 56 50 25 14 18 17 24 29 15 40 48 53 50 53 59 44 47 52 59 61 52 60 63 72 78 79 73
47 48 48 59 61 68 66 67 60 62 63 64 68 73 58 50 48 49 36 9 9 24 14 14 21 27 40 43 46 61 55 42 42 48 52 57 57 54 65 70 78 83 84 86
41 49 52 59 58 69 63 64 57 55 58 63 73 66 49 47 45 42 22 9 10 18 19 27 34 39 34 44 55 46 40 40 41 50 53 51 54 64 69 76 87 90 89 87
47 49 49 52 54 63 59 65 51 49 55 64 59 48 40 43 45 35 18 7 7 18 24 25 42 35 36 42 39 42 40 42 39 45 48 52 55 62 71 77 83 91 94 89
52 47 50 48 51 57 51 54 45 46 52 55 54 48 36 36 35 23 12 12 15 16 20 21 29 42 37 38 35 35 38 35 35 42 50 55 56 57 61 66 75 86 95 91
51 47 48 46 61 51 48 40 43 46 48 43 43 44 37 32 34 23 21 17 22 23 16 22 25 22 22 23 19 31 33 34 35 43 48 51 53 55 56 61 71 86 81 80
45 45 44 41 63 53 49 33 42 43 44 39 40 40 36 22 27 23 25 25 22 18 15 14 12 16 19 22 24 30 32 34 38 42 44 47 53 55 59 68 74 74 72 76
46 42 44 43 58 47 50 35 37 37 45 40 36 35 32 19 23 21 23 21 13 11 11 8 9 10 16 21 26 30 30 32 35 39 43 48 54 59 65 69 72 75 70 64
41 40 43 44 56 48 44 36 36 40 37 37 35 31 29 30 26 27 32 24 19 16 17 15 14 13 20 21 22 24 27 28 33 38 40 48 60 62 69 72 76 76 61 61
47 40 45 42 56 59 40 40 44 39 37 39 33 29 28 29 34 34 31 28 26 28 28 28 24 21 23 24 23 25 27 28 32 35 39 49 62 67 78 77 74 70 65 68
39 37 44 41 50 47 45 26 42 48 43 39 35 30 29 31 31 28 30 30 29 31 30 25 25 26 27 26 25 26 26 27 29 32 38 49 65 62 70 76 70 69 69 68
33 32 39 38 42 46 45 24 33 46 45 36 35 34 32 27 29 30 28 27 28 29 31 29 28 29 29 28 27 25 26 28 30 33 38 47 69 65 67 78 69 70 64 68
26 25 34 37 39 45 43 36 29 43 44 38 38 48 40 31 30 31 31 30 31 31 30 29 27 28 30 30 30 29 29 31 32 36 39 47 61 78 73 69 75 69 65 68
Wind_Direction_500mb
277 282 284 280 280 282 266 262 259 278 287 292 308 322 320 317 314 312 306 309 309 310 310 307 304 305 304 302 299 297 295 293 279 268 274 275 241 225 222 220 226 227 260 259
296 285 286 287 279 276 281 280 269 274 284 321 316 311 317 320 318 310 308 308 308 308 305 303 302 303 306 301 297 296 293 290 282 269 265 260 234 219 222 225 230 226 238 234
290 312 306 285 329 322 306 300 310 285 302 320 318 319 319 318 311 307 308 306 306 304 302 302 301 303 301 295 296 291 291 288 283 268 259 245 235 232 228 226 226 229 227 236
295 312 291 1 316 309 309 289 299 292 306 320 310 298 309 309 303 307 307 303 300 299 300 299 300 301 298 294 290 287 287 285 280 263 254 240 233 252 231 217 215 211 219 235
279 305 291 288 45 13 321 303 300 348 326 316 302 298 300 310 309 307 303 300 299 301 297 297 295 297 297 298 290 284 283 279 277 253 248 239 236 253 237 221 203 211 208 232
288 275 297 322 161 342 321 294 80 327 317 308 314 305 306 317 314 306 305 302 302 300 299 295 293 295 295 292 287 282 278 275 273 241 238 225 242 252 223 211 204 193 194 201
263 276 276 323 276 334 285 330 322 311 309 307 302 298 302 309 310 308 306 304 303 300 297 295 295 294 289 287 282 281 280 266 268 233 228 216 239 243 220 204 188 188 184 186
265 260 277 14 328 290 297 301 301 299 301 310 305 304 305 308 309 310 311 314 311 306 300 296 295 290 284 280 274 273 262 245 257 235 217 221 230 224 209 195 193 174 186 182
230 269 295 304 305 303 305 298 300 310 316 313 308 307 306 306 307 308 309 308 311 309 308 303 295 286 279 268 264 247 239 242 249 223 212 222 219 214 187 180 175 162 168 167
276 271 290 310 308 311 310 311 314 316 312 308 304 308 306 308 309 309 311 314 317 314 308 303 297 288 273 265 250 238 228 235 233 207 202 208 210 204 192 174 151 150 154 154
268 290 312 303 310 313 319 316 316 313 313 313 304 311 311 310 311 314 317 320 320 313 309 304 298 277 261 242 234 228 224 210 195 188 197 191 191 184 185 174 156 168 152 161
287 304 300 304 317 324 320 319 321 317 316 317 316 316 317 314 318 321 320 321 318 318 312 305 295 263 236 228 209 194 179 168 175 185 187 185 180 172 175 176 183 187 165 176
290 310 314 314 320 323 320 321 322 323 317 322 326 325 324 322 324 322 320 323 326 324 320 315 255 216 213 192 175 153 163 167 175 174 174 171 169 165 158 157 164 159 155 155
318 324 319 326 323 326 327 323 323 321 329 332 332 334 332 328 328 326 330 338 345 357 353 342 136 141 140 148 156 165 168 173 165 166 171 167 162 156 145 144 149 144 149 147
317 320 318 324 326 329 334 327 324 327 335 337 341 340 337 332 332 336 344 357 29 35 58 108 132 134 141 161 160 165 165 150 157 165 164 160 157 148 147 143 138 134 137 145
320 321 326 331 329 332 333 333 327 336 338 341 345 343 340 341 341 348 357 4 33 13 129 134 117 138 148 151 155 156 147 145 150 152 154 156 157 157 146 142 138 141 141 141
323 324 330 331 333 335 333 337 340 339 343 349 346 335 343 351 358 2 28 71 47 43 113 130 126 129 133 143 138 151 141 144 147 148 155 163 165 153 150 149 144 147 149 152
330 328 333 331 330 332 332 342 346 349 355 352 346 349 353 4 3 7 40 65 65 89 119 123 125 140 144 141 145 147 146 148 152 155 155 168 160 157 155 156 154 153 152 155
339 333 340 338 342 343 335 344 353 358 358 355 355 1 357 14 14 23 56 89 97 104 113 120 132 141 149 149 148 145 145 152 155 152 156 160 160 159 157 158 158 158 156 158
344 339 342 344 352 352 344 351 358 2 1 356 358 5 4 17 26 48 87 99 79 75 85 112 136 136 138 141 148 144 147 151 151 154 159 158 158 158 159 162 161 159 155 157
348 344 346 351 354 355 358 357 3 4 7 10 7 8 4 19 31 56 89 93 81 93 100 98 120 131 143 153 157 155 151 152 157 159 159 160 161 158 158 159 159 160 158 158
351 350 353 356 358 357 359 4 13 13 11 10 10 12 17 44 39 54 78 94 96 86 96 92 102 119 129 142 154 153 151 155 158 162 165 165 158 153 153 157 159 155 149 150
355 359 358 4 6 7 5 11 19 19 14 27 18 25 33 42 52 68 81 85 102 97 114 121 112 112 118 139 146 149 156 161 163 166 169 165 160 151 155 156 156 153 148 151
355 3 4 6 6 9 16 32 32 24 32 28 27 36 47 52 62 68 80 93 102 110 108 111 117 114 126 136 146 153 158 160 162 163 164 166 165 159 164 164 161 161 158 158
1 5 10 11 12 3 9 18 25 25 24 31 38 46 48 61 71 72 84 92 99 104 104 105 115 124 129 133 139 145 150 155 158 156 157 162 163 160 166 172 164 159 160 159
360 7 17 13 15 14 12 18 22 30 36 43 40 58 62 63 75 74 78 86 94 100 103 109 119 126 128 129 132 136 140 144 152 154 156 160 162 157 163 168 164 163 162 160
2 9 21 22 25 19 23 32 32 37 42 50 61 63 64 72 79 88 86 90 96 101 104 107 115 123 127 130 132 133 136 138 144 151 155 162 166 168 168 171 168 161 161 158
Wind_Speed_850mb
33 43 44 45 48 48 39 47 32 51 49 48 42 22 31 34 44 58 61 66 61 63 66 62 63 62 63 59 50 44 46 44 41 34 27 18 23 30 34 43 48 42 59 56
40 32 28 29 38 41 41 40 32 37 45 15 24 30 46 49 61 71 70 65 65 68 66 68 66 63 67 59 50 44 44 43 38 34 24 16 17 31 32 44 45 54 48 36
25 19 34 28 11 16 27 22 17 15 34 26 29 43 50 64 72 66 65 66 76 75 69 74 73 74 68 56 51 46 44 39 35 32 23 18 16 22 30 37 36 32 25 28
16 26 23 13 32 21 17 22 29 40 30 22 48 54 58 63 54 61 77 80 74 71 75 73 75 77 62 53 48 46 44 39 32 28 24 19 16 19 23 31 37 37 26 35
9 20 37 21 3 4 6 37 32 5 25 62 53 59 54 47 59 81 75 73 73 81 76 79 71 65 57 49 44 43 43 34 27 26 24 19 17 20 19 29 39 40 33 28
11 9 16 15 2 26 40 31 10 41 48 57 44 33 41 82 86 76 71 75 76 78 80 71 67 59 51 46 40 42 38 28 24 25 23 17 19 20 20 23 35 33 26 21
14 13 20 14 6 53 15 12 62 69 57 60 31 47 99 95 83 75 77 75 72 71 76 72 64 50 47 43 40 37 35 27 20 27 24 15 25 20 24 32 34 33 25 28
8 10 12 5 39 4 24 66 65 61 62 61 72 84 82 86 88 85 89 86 78 76 68 64 53 42 43 40 29 27 26 25 20 28 25 23 28 22 28 35 32 30 27 37
10 15 51 63 43 63 56 63 62 53 69 78 77 80 83 83 76 82 80 78 78 67 65 54 42 36 42 35 29 28 31 31 25 29 28 27 28 25 34 30 31 33 39 44
16 17 33 54 61 55 68 66 61 67 73 69 75 79 80 79 77 77 78 77 72 66 60 54 41 35 36 34 32 36 42 43 35 36 30 32 26 26 40 43 47 44 47 55
24 43 48 36 56 66 71 61 67 66 65 74 67 79 74 77 77 79 80 76 70 65 61 55 40 33 28 31 32 35 42 36 40 39 40 39 34 41 45 49 40 42 53 52
7 43 38 54 69 63 59 64 67 69 75 71 73 74 72 73 74 74 78 77 70 63 57 47 34 25 23 27 31 31 35 44 53 51 46 40 45 52 50 52 49 54 61 65
23 50 50 60 60 65 63 64 69 71 68 73 69 65 67 71 69 70 75 63 66 58 31 17 10 17 21 27 34 51 48 62 59 55 45 49 52 54 53 40 44 54 61 65
42 43 49 52 67 65 63 69 72 63 67 63 67 66 65 67 66 68 59 55 34 21 12 2 11 28 32 44 44 47 53 54 59 47 51 55 55 57 56 57 60 58 52 66
35 45 45 57 63 65 70 67 67 69 64 68 65 68 65 62 60 56 50 25 14 18 17 24 29 15 40 48 53 50 53 59 44 47 52 59 61 52 60 63 72 78 79 73
47 48 48 59 61 68 66 67 60 62 63 64 68 73 58 50 48 49 36 9 9 24 14 14 21 27 40 43 46 61 55 42 42 48 52 57 57 54 65 70 78 83 84 86
41 49 52 59 58 69 63 64 57 55 58 63 73 66 49 47 45 42 22 9 10 18 19 27 34 39 34 44 55 46 40 40 41 50 53 51 54 64 69 76 87 90 89 87
47 49 49 52 54 63 59 65 51 49 55 64 59 48 40 43 45 35 18 7 7 18 24 25 42 35 36 42 39 42 40 42 39 45 48 52 55 62 71 77 83 91 94 89
52 47 50 48 51 57 51 54 45 46 52 55 54 48 36 36 35 23 12 12 15 16 20 21 29 42 37 38 35 35 38 35 35 42 50 55 56 57 61 66 75 86 95 91
51 47 48 46 61 51 48 40 43 46 48 43 43 44 37 32 34 23 21 17 22 23 16 22 25 22 22 23 19 31 33 34 35 43 48 51 53 55 56 61 71 86 81 80
45 45 44 41 63 53 49 33 42 43 44 39 40 40 36 22 27 23 25 25 22 18 15 14 12 16 19 22 24 30 32 34 38 42 44 47 53 55 59 68 74 74 72 76
46 42 44 43 58 47 50 35 37 37 45 40 36 35 32 19 23 21 23 21 13 11 11 8 9 10 16 21 26 30 30 32 35 39 43 48 54 59 65 69 72 75 70 64
41 40 43 44 56 48 44 36 36 40 37 37 35 31 29 30 26 27 32 24 19 16 17 15 14 13 20 21 22 24 27 28 33 38 40 48 60 62 69 72 76 76 61 61
47 40 45 42 56 59 40 40 44 39 37 39 33 29 28 29 34 34 31 28 26 28 28 28 24 21 23 24 23 25 27 28 32 35 39 49 62 67 78 77 74 70 65 68
39 37 44 41 50 47 45 26 42 48 43 39 35 30 29 31 31 28 30 30 29 31 30 25 25 26 27 26 25 26 26 27 29 32 38 49 65 62 70 76 70 69 69 68
33 32 39 38 42 46 45 24 33 46 45 36 35 34 32 27 29 30 28 27 28 29 31 29 28 29 29 28 27 25 26 28 30 33 38 47 69 65 67 78 69 70 64 68
26 25 34 37 39 45 43 36 29 43 44 38 38 48 40 31 30 31 31 30 31 31 30 29 27 28 30 30 30 29 29 31 32 36 39 47 61 78 73 69 75 69 65 68
Wind_Direction_850mb
277 282 284 280 280 282 266 262 259 278 287 292 308 322 320 317 314 312 306 309 309 310 310 307 304 305 304 302 299 297 295 293 279 268 274 275 241 225 222 220 226 227 260 259
296 285 286 287 279 276 281 280 269 274 284 321 316 311 317 320 318 310 308 308 308 308 305 303 302 303 306 301 297 296 293 290 282 269 265 260 234 219 222 225 230 226 238 234
290 312 306 285 329 322 306 300 310 285 302 320 318 319 319 318 311 307 308 306 306 304 302 302 301 303 301 295 296 291 291 288 283 268 259 245 235 232 228 226 226 229 227 236
295 312 291 1 316 309 309 289 299 292 306 320 310 298 309 309 303 307 307 303 300 299 300 299 300 301 298 294 290 287 287 285 280 263 254 240 233 252 231 217 215 211 219 235
279 305 291 288 45 13 321 303 300 348 326 316 302 298 300 310 309 307 303 300 299 301 297 297 295 297 297 298 290 284 283 279 277 253 248 239 236 253 237 221 203 211 208 232
288 275 297 322 161 342 321 294 80 327 317 308 314 305 306 317 314 306 305 302 302 300 299 295 293 295 295 292 287 282 278 275 273 241 238 225 242 252 223 211 204 193 194 201
263 276 276 323 276 334 285 330 322 311 309 307 302 298 302 309 310 308 306 304 303 300 297 295 295 294 289 287 282 281 280 266 268 233 228 216 239 243 220 204 188 188 184 186
265 260 277 14 328 290 297 301 301 299 301 310 305 304 305 308 309 310 311 314 311 306 300 296 295 290 284 280 274 273 262 245 257 235 217 221 230 224 209 195 193 174 186 182
230 269 295 304 305 303 305 298 300 310 316 313 308 307 306 306 307 308 309 308 311 309 308 303 295 286 279 268 264 247 239 242 249 223 212 222 219 214 187 180 175 162 168 167
276 271 290 310 308 311 310 311 314 316 312 308 304 308 306 308 309 309 311 314 317 314 308 303 297 288 273 265 250 238 228 235 233 207 202 208 210 204 192 174 151 150 154 154
268 290 312 303 310 313 319 316 316 313 313 313 304 311 311 310 311 314 317 320 320 313 309 304 298 277 261 242 234 228 224 210 195 188 197 191 191 184 185 174 156 168 152 161
287 304 300 304 317 324 320 319 321 317 316 317 316 316 317 314 318 321 320 321 318 318 312 305 295 263 236 228 209 194 179 168 175 185 187 185 180 172 175 176 183 187 165 176
290 310 314 314 320 323 320 321 322 323 317 322 326 325 324 322 324 322 320 323 326 324 320 315 255 216 213 192 175 153 163 167 175 174 174 171 169 165 158 157 164 159 155 155
318 324 319 326 323 326 327 323 323 321 329 332 332 334 332 328 328 326 330 338 345 357 353 342 136 141 140 148 156 165 168 173 165 166 171 167 162 156 145 144 149 144 149 147
317 320 318 324 326 329 334 327 324 327 335 337 341 340 337 332 332 336 344 357 29 35 58 108 132 134 141 161 160 165 165 150 157 165 164 160 157 148 147 143 138 134 137 145
320 321 326 331 329 332 333 333 327 336 338 341 345 343 340 341 341 348 357 4 33 13 129 134 117 138 148 151 155 156 147 145 150 152 154 156 157 157 146 142 138 141 141 141
323 324 330 331 333 335 333 337 340 339 343 349 346 335 343 351 358 2 28 71 47 43 113 130 126 129 133 143 138 151 141 144 147 148 155 163 165 153 150 149 144 147 149 152
330 328 333 331 330 332 332 342 346 349 355 352 346 349 353 4 3 7 40 65 65 89 119 123 125 140 144 141 145 147 146 148 152 155 155 168 160 157 155 156 154 153 152 155
339 333 340 338 342 343 335 344 353 358 358 355 355 1 357 14 14 23 56 89 97 104 113 120 132 141 149 149 148 145 145 152 155 152 156 160 160 159 157 158 158 158 156 158
344 339 342 344 352 352 344 351 358 2 1 356 358 5 4 17 26 48 87 99 79 75 85 112 136 136 138 141 148 144 147 151 151 154 159 158 158 158 159 162 161 159 155 157
348 344 346 351 354 355 358 357 3 4 7 10 7 8 4 19 31 56 89 93 81 93 100 98 120 131 143 153 157 155 151 152 157 159 159 160 161 158 158 159 159 160 158 158
351 350 353 356 358 357 359 4 13 13 11 10 10 12 17 44 39 54 78 94 96 86 96 92 102 119 129 142 154 153 151 155 158 162 165 165 158 153 153 157 159 155 149 150
355 359 358 4 6 7 5 11 19 19 14 27 18 25 33 42 52 68 81 85 102 97 114 121 112 112 118 139 146 149 156 161 163 166 169 165 160 151 155 156 156 153 148 151
355 3 4 6 6 9 16 32 32 24 32 28 27 36 47 52 62 68 80 93 102 110 108 111 117 114 126 136 146 153 158 160 162 163 164 166 165 159 164 164 161 161 158 158
1 5 10 11 12 3 9 18 25 25 24 31 38 46 48 61 71 72 84 92 99 104 104 105 115 124 129 133 139 145 150 155 158 156 157 162 163 160 166 172 164 159 160 159
360 7 17 13 15 14 12 18 22 30 36 43 40 58 62 63 75 74 78 86 94 100 103 109 119 126 128 129 132 136 140 144 152 154 156 160 162 157 163 168 164 163 162 160
2 9 21 22 25 19 23 32 32 37 42 50 61 63 64 72 79 88 86 90 96 101 104 107 115 123 127 130 132 133 136 138 144 151 155 162 166 168 168 171 168 161 161 158